Change the Weather History Date:

Saturday, October 8, 2011

  Actual Average Record
Temperature  
Mean Temperature 72 °F -  
Max Temperature 78 °F 58 °F 84 °F (2007)
Min Temperature 66 °F 48 °F 32 °F (2001)
Cooling Degree Days 7    
Growing Degree Days 22 (Base 50)    
Moisture  
Dew Point 51 °F    
Average Humidity 50    
Maximum Humidity 60    
Minimum Humidity 39    
Precipitation  
Precipitation 0.00 in - - ()
Sea Level Pressure  
Sea Level Pressure 30.26 in    
Wind  
Wind Speed 11 mph (SSW)    
Max Wind Speed 15 mph    
Max Gust Speed 25 mph    
Visibility 10 miles    
Events      
Averages and records for this station are not official NWS values.
T = Trace of Precipitation, MM = Missing Value Source: NWS Daily Summary

Daily Weather History Graph

Daily Weather History Graph

Search for Another Location

Airport or City:

Trip Planner

Search our weather history database for the weather conditions in past years. The results will help you decide how hot, cold, wet, or windy it might be!

Date:

Astronomy

Oct. 08, 2011 Rise Set
Actual Time 7:47 AM EDT 7:08 PM EDT
Civil Twilight 7:18 AM EDT 7:38 PM EDT
Nautical Twilight 6:44 AM EDT 8:12 PM EDT
Astronomical Twilight 6:09 AM EDT 8:46 PM EDT
Moon 5:24 PM EDT (10/8) 4:26 AM EDT (10/8)
Length of Visible Light 12h 20m
Length of Day
11h 21m
Waxing Gibbous, 90% of the Moon is Illuminated
Oct 8
Waxing Gibbous
Oct 11
Full
Oct 19
Last Quarter
Oct 26
New
Nov 2
First Quarter

Hourly Weather History & Observations

Time (EDT) Temp. Dew Point Humidity Pressure Visibility Wind Dir Wind Speed Gust Speed Precip Events Conditions
12:15 AM 71.6 °F 50.0 °F 46% 30.22 in 10.0 mi South 11.5 mph 20.7 mph N/A   Clear
12:34 AM 71.6 °F 50.0 °F 46% 30.22 in 10.0 mi South 12.7 mph 17.3 mph N/A   Clear
12:55 AM 71.6 °F 50.0 °F 46% 30.21 in 10.0 mi South 12.7 mph 25.3 mph N/A   Clear
1:15 AM 69.8 °F 50.0 °F 49% 30.21 in 10.0 mi South 12.7 mph 16.1 mph N/A   Clear
1:34 AM 69.8 °F 50.0 °F 49% 30.21 in 10.0 mi South 12.7 mph 20.7 mph N/A   Clear
1:55 AM 69.8 °F 50.0 °F 49% 30.21 in 10.0 mi South 12.7 mph 20.7 mph N/A   Clear
2:15 AM 69.8 °F 50.0 °F 49% 30.21 in 10.0 mi South 12.7 mph 20.7 mph N/A   Clear
2:34 AM 69.8 °F 50.0 °F 49% 30.21 in 10.0 mi South 15.0 mph 25.3 mph N/A   Clear
3:14 AM 68.0 °F 50.0 °F 52% 30.22 in 10.0 mi South 13.8 mph 20.7 mph N/A   Clear
3:34 AM 68.0 °F 50.0 °F 52% 30.22 in 10.0 mi South 12.7 mph 18.4 mph N/A   Clear
3:55 AM 68.0 °F 50.0 °F 52% 30.23 in 10.0 mi South 9.2 mph 18.4 mph N/A   Clear
4:14 AM 68.0 °F 50.0 °F 52% 30.23 in 10.0 mi South 15.0 mph 21.9 mph N/A   Clear
4:35 AM 68.0 °F 50.0 °F 52% 30.24 in 10.0 mi South 10.4 mph 19.6 mph N/A   Clear
4:54 AM 68.0 °F 50.0 °F 52% 30.25 in 10.0 mi South 8.1 mph 16.1 mph N/A   Clear
5:15 AM 68.0 °F 50.0 °F 52% 30.25 in 10.0 mi South 11.5 mph 20.7 mph N/A   Clear
5:35 AM 66.2 °F 50.0 °F 56% 30.25 in 10.0 mi South 10.4 mph 16.1 mph N/A   Clear
5:54 AM 66.2 °F 50.0 °F 56% 30.26 in 10.0 mi South 8.1 mph - N/A   Clear
6:15 AM 66.2 °F 50.0 °F 56% 30.27 in 10.0 mi South 6.9 mph - N/A   Clear
6:35 AM 66.2 °F 50.0 °F 56% 30.28 in 10.0 mi South 8.1 mph - N/A   Clear
6:54 AM 66.2 °F 50.0 °F 56% 30.28 in 10.0 mi South 8.1 mph - N/A   Clear
7:15 AM 66.2 °F 50.0 °F 56% 30.28 in 10.0 mi South 9.2 mph - N/A   Clear
7:35 AM 66.2 °F 50.0 °F 56% 30.28 in 10.0 mi South 9.2 mph 17.3 mph N/A   Clear
7:54 AM 66.2 °F 50.0 °F 56% 30.28 in 10.0 mi South 9.2 mph - N/A   Clear
8:15 AM 66.2 °F 51.8 °F 60% 30.29 in 10.0 mi South 9.2 mph - N/A   Clear
8:35 AM 66.2 °F 51.8 °F 60% 30.29 in 10.0 mi South 8.1 mph - N/A   Clear
8:54 AM 66.2 °F 51.8 °F 60% 30.29 in 10.0 mi South 6.9 mph - N/A   Clear
9:15 AM 68.0 °F 51.8 °F 56% 30.30 in 10.0 mi South 12.7 mph 18.4 mph N/A   Clear
9:35 AM 68.0 °F 51.8 °F 56% 30.30 in 10.0 mi SSW 12.7 mph 16.1 mph N/A   Clear
9:54 AM 69.8 °F 53.6 °F 56% 30.29 in 10.0 mi SSW 11.5 mph 16.1 mph N/A   Clear
10:15 AM 69.8 °F 53.6 °F 56% 30.30 in 10.0 mi SSW 12.7 mph 20.7 mph N/A   Clear
10:34 AM 71.6 °F 53.6 °F 53% 30.30 in 10.0 mi SW 11.5 mph 17.3 mph N/A   Clear
10:54 AM 71.6 °F 53.6 °F 53% 30.29 in 10.0 mi SSW 11.5 mph 19.6 mph N/A   Clear
11:15 AM 73.4 °F 53.6 °F 50% 30.30 in 10.0 mi SSW 8.1 mph 18.4 mph N/A   Clear
11:34 AM 73.4 °F 53.6 °F 50% 30.30 in 10.0 mi SSW 9.2 mph - N/A   Clear
12:15 PM 75.2 °F 53.6 °F 47% 30.30 in 10.0 mi SSW 11.5 mph 19.6 mph N/A   Clear
12:34 PM 75.2 °F 53.6 °F 47% 30.30 in 10.0 mi SSW 13.8 mph 18.4 mph N/A   Clear
1:15 PM 77.0 °F 53.6 °F 44% 30.29 in 10.0 mi SSW 13.8 mph 21.9 mph N/A   Clear
1:34 PM 77.0 °F 53.6 °F 44% 30.28 in 10.0 mi SSW 15.0 mph 20.7 mph N/A   Clear
1:55 PM 78.8 °F 53.6 °F 42% 30.28 in 10.0 mi SSW 13.8 mph - N/A   Clear
2:15 PM 77.0 °F 51.8 °F 41% 30.27 in 10.0 mi SW 13.8 mph 23.0 mph N/A   Clear
2:34 PM 78.8 °F 51.8 °F 39% 30.27 in 10.0 mi SSW 11.5 mph 19.6 mph N/A   Clear
2:55 PM 78.8 °F 51.8 °F 39% 30.27 in 10.0 mi SW 13.8 mph 18.4 mph N/A   Clear
3:14 PM 78.8 °F 51.8 °F 39% 30.27 in 10.0 mi SSW 11.5 mph 17.3 mph N/A   Clear
3:55 PM 78.8 °F 51.8 °F 39% 30.26 in 10.0 mi SW 10.4 mph 16.1 mph N/A   Clear
4:14 PM 78.8 °F 53.6 °F 42% 30.26 in 10.0 mi SSW 6.9 mph - N/A   Clear
4:35 PM 78.8 °F 51.8 °F 39% 30.25 in 10.0 mi South 11.5 mph 17.3 mph N/A   Clear
4:54 PM 78.8 °F 51.8 °F 39% 30.25 in 10.0 mi SSW 11.5 mph - N/A   Clear
5:14 PM 77.0 °F 53.6 °F 44% 30.24 in 10.0 mi South 8.1 mph - N/A   Clear
5:35 PM 77.0 °F 53.6 °F 44% 30.24 in 10.0 mi South 8.1 mph - N/A   Clear
5:55 PM 77.0 °F 51.8 °F 41% 30.24 in 10.0 mi SSW 8.1 mph - N/A   Clear
6:14 PM 77.0 °F 53.6 °F 44% 30.25 in 10.0 mi SSW 8.1 mph - N/A   Clear
6:34 PM 75.2 °F 51.8 °F 44% 30.25 in 10.0 mi SSW 5.8 mph - N/A   Clear
6:54 PM 73.4 °F 51.8 °F 47% 30.25 in 10.0 mi SSW 4.6 mph - N/A   Clear
7:15 PM 71.6 °F 51.8 °F 50% 30.25 in 10.0 mi South 4.6 mph - N/A   Clear
7:35 PM 71.6 °F 51.8 °F 50% 30.26 in 10.0 mi South 4.6 mph - N/A   Clear
7:54 PM 69.8 °F 51.8 °F 53% 30.26 in 10.0 mi South 4.6 mph - N/A   Clear
8:15 PM 69.8 °F 53.6 °F 56% 30.27 in 10.0 mi SSW 4.6 mph - N/A   Clear
8:34 PM 69.8 °F 53.6 °F 56% 30.26 in 10.0 mi SSW 6.9 mph - N/A   Clear
8:55 PM 69.8 °F 51.8 °F 53% 30.26 in 10.0 mi South 6.9 mph - N/A   Clear
9:15 PM 69.8 °F 51.8 °F 53% 30.25 in 10.0 mi South 9.2 mph - N/A   Clear
9:34 PM 69.8 °F 51.8 °F 53% 30.25 in 10.0 mi South 9.2 mph - N/A   Clear
9:55 PM 69.8 °F 51.8 °F 53% 30.25 in 10.0 mi South 8.1 mph - N/A   Clear
10:15 PM 69.8 °F 51.8 °F 53% 30.25 in 10.0 mi South 9.2 mph - N/A   Clear
10:34 PM 69.8 °F 51.8 °F 53% 30.25 in 10.0 mi SSW 10.4 mph 16.1 mph N/A   Clear
10:55 PM 68.0 °F 51.8 °F 56% 30.26 in 10.0 mi SSW 11.5 mph 16.1 mph N/A   Clear
11:15 PM 68.0 °F 51.8 °F 56% 30.26 in 10.0 mi SSW 10.4 mph 17.3 mph N/A   Clear
11:34 PM 68.0 °F 51.8 °F 56% 30.26 in 10.0 mi SSW 9.2 mph - N/A   Clear
11:55 PM 66.2 °F 51.8 °F 60% 30.27 in 10.0 mi South 6.9 mph - N/A   Clear